Time,TemperatureF,DewpointF,PressureIn,WindDirection,WindDirectionDegrees,WindSpeedMPH,WindSpeedGustMPH,Humidity,HourlyPrecipIn,Conditions,Clouds,dailyrainin,SoftwareType,DateUTC
2013-02-17 00:02:00,30.0,20.0,30.21,SSW,211,0.0,-999.0,66,-99.99,,,-99.99,,2013-02-17 06:02:00,
2013-02-17 00:11:00,30.0,20.0,30.21,SSW,211,0.0,-999.0,66,-99.99,,,-99.99,,2013-02-17 06:11:00,
2013-02-17 00:21:00,30.0,20.0,30.20,SW,215,0.0,-999.0,67,-99.99,,,-99.99,,2013-02-17 06:21:00,
2013-02-17 00:31:00,30.0,20.0,30.20,SW,219,0.0,-999.0,67,-99.99,,,-99.99,,2013-02-17 06:31:00,
2013-02-17 00:41:00,30.0,20.0,30.20,SW,219,0.0,-999.0,67,-99.99,,,-99.99,,2013-02-17 06:41:00,
2013-02-17 00:52:00,31.0,21.0,30.20,SSW,210,0.0,-999.0,67,-99.99,,,-99.99,,2013-02-17 06:52:00,
2013-02-17 01:01:00,31.0,21.0,30.20,North,360,0.0,-999.0,67,-99.99,,,-99.99,,2013-02-17 07:01:00,
2013-02-17 01:11:00,31.0,21.0,30.20,SSW,210,0.0,-999.0,67,-99.99,,,-99.99,,2013-02-17 07:11:00,
2013-02-17 01:21:00,31.0,21.0,30.20,SSW,210,0.0,-999.0,67,-99.99,,,-99.99,,2013-02-17 07:21:00,
2013-02-17 01:31:00,32.0,22.0,30.20,SW,222,0.0,-999.0,67,-99.99,,,-99.99,,2013-02-17 07:31:00,
2013-02-17 01:41:00,32.0,22.0,30.20,SW,222,0.0,-999.0,67,-99.99,,,-99.99,,2013-02-17 07:41:00,
2013-02-17 01:52:00,32.0,23.0,30.20,SW,219,0.0,-999.0,68,-99.99,,,-99.99,,2013-02-17 07:52:00,
2013-02-17 02:01:00,32.0,23.0,30.20,SW,225,0.0,-999.0,68,-99.99,,,-99.99,,2013-02-17 08:01:00,
2013-02-17 02:11:00,32.0,23.0,30.20,SW,225,0.0,-999.0,68,-99.99,,,-99.99,,2013-02-17 08:11:00,
2013-02-17 02:21:00,32.0,23.0,30.20,SSW,213,0.0,-999.0,69,-99.99,,,-99.99,,2013-02-17 08:21:00,
2013-02-17 02:31:00,32.0,23.0,30.19,SSW,213,0.0,-999.0,70,-99.99,,,-99.99,,2013-02-17 08:31:00,
2013-02-17 02:42:00,32.0,23.0,30.19,SSW,213,0.0,-999.0,70,-99.99,,,-99.99,,2013-02-17 08:42:00,
2013-02-17 02:52:00,32.0,23.0,30.19,SW,214,0.0,-999.0,70,-99.99,,,-99.99,,2013-02-17 08:52:00,
2013-02-17 03:01:00,32.0,23.0,30.19,SSW,211,0.0,-999.0,70,-99.99,,,-99.99,,2013-02-17 09:01:00,
2013-02-17 03:11:00,32.0,23.0,30.19,SSW,211,0.0,-999.0,70,-99.99,,,-99.99,,2013-02-17 09:11:00,
2013-02-17 03:21:00,32.0,24.0,30.19,SW,223,0.0,-999.0,71,-99.99,,,-99.99,,2013-02-17 09:21:00,
2013-02-17 03:31:00,32.0,24.0,30.19,SW,221,0.0,-999.0,71,-99.99,,,-99.99,,2013-02-17 09:31:00,
2013-02-17 03:41:00,32.0,24.0,30.19,SW,221,0.0,-999.0,71,-99.99,,,-99.99,,2013-02-17 09:41:00,
2013-02-17 03:52:00,32.0,24.0,30.19,SW,229,0.0,-999.0,71,-99.99,,,-99.99,,2013-02-17 09:52:00,
2013-02-17 04:01:00,32.0,24.0,30.19,SW,229,0.0,-999.0,71,-99.99,,,-99.99,,2013-02-17 10:01:00,
2013-02-17 04:11:00,32.0,24.0,30.19,SW,229,0.0,-999.0,71,-99.99,,,-99.99,,2013-02-17 10:11:00,
2013-02-17 04:21:00,33.0,25.0,30.19,SW,219,0.0,-999.0,71,-99.99,,,-99.99,,2013-02-17 10:21:00,
2013-02-17 04:31:00,33.0,25.0,30.19,SW,219,0.0,-999.0,71,-99.99,,,-99.99,,2013-02-17 10:31:00,
2013-02-17 04:42:00,33.0,25.0,30.19,SW,219,0.0,-999.0,71,-99.99,,,-99.99,,2013-02-17 10:42:00,
2013-02-17 04:52:00,33.0,25.0,30.19,SW,215,0.0,-999.0,71,-99.99,,,-99.99,,2013-02-17 10:52:00,
2013-02-17 05:01:00,33.0,25.0,30.19,SW,225,0.0,-999.0,71,-99.99,,,-99.99,,2013-02-17 11:01:00,
2013-02-17 05:11:00,33.0,25.0,30.19,SW,225,0.0,-999.0,71,-99.99,,,-99.99,,2013-02-17 11:11:00,
2013-02-17 05:21:00,33.0,24.0,30.20,SSW,210,0.0,-999.0,69,-99.99,,,-99.99,,2013-02-17 11:21:00,
2013-02-17 05:32:00,33.0,24.0,30.20,South,178,0.0,-999.0,69,-99.99,,,-99.99,,2013-02-17 11:32:00,
2013-02-17 05:42:00,33.0,24.0,30.20,South,178,0.0,-999.0,69,-99.99,,,-99.99,,2013-02-17 11:42:00,
2013-02-17 05:52:00,33.0,24.0,30.20,South,188,1.0,-999.0,68,-99.99,,,-99.99,,2013-02-17 11:52:00,
2013-02-17 06:03:00,33.0,24.0,30.20,SSW,206,1.0,-999.0,68,-99.99,,,-99.99,,2013-02-17 12:03:00,
2013-02-17 06:11:00,33.0,24.0,30.20,SSW,206,1.0,-999.0,68,-99.99,,,-99.99,,2013-02-17 12:11:00,
2013-02-17 06:22:00,33.0,23.0,30.20,SSW,199,1.0,-999.0,67,-99.99,,,-99.99,,2013-02-17 12:22:00,
2013-02-17 06:32:00,33.0,23.0,30.20,SSE,158,0.0,-999.0,67,-99.99,,,-99.99,,2013-02-17 12:32:00,
2013-02-17 06:42:00,33.0,23.0,30.20,SSE,158,0.0,-999.0,67,-99.99,,,-99.99,,2013-02-17 12:42:00,
2013-02-17 06:52:00,33.0,23.0,30.20,SSW,205,1.0,-999.0,66,-99.99,,,-99.99,,2013-02-17 12:52:00,
2013-02-17 07:02:00,33.0,23.0,30.20,SSW,194,0.0,-999.0,66,-99.99,,,-99.99,,2013-02-17 13:02:00,
2013-02-17 07:12:00,33.0,23.0,30.20,SSW,194,0.0,-999.0,66,-99.99,,,-99.99,,2013-02-17 13:12:00,
2013-02-17 07:21:00,33.0,23.0,30.20,South,172,0.0,-999.0,67,-99.99,,,-99.99,,2013-02-17 13:21:00,
2013-02-17 07:32:00,33.0,23.0,30.21,SSW,199,0.0,-999.0,67,-99.99,,,-99.99,,2013-02-17 13:32:00,
2013-02-17 07:41:00,33.0,23.0,30.21,SSW,199,0.0,-999.0,67,-99.99,,,-99.99,,2013-02-17 13:41:00,
2013-02-17 07:52:00,34.0,23.0,30.21,South,173,1.0,-999.0,65,-99.99,,,-99.99,,2013-02-17 13:52:00,
2013-02-17 08:01:00,34.0,23.0,30.21,South,180,1.0,-999.0,64,-99.99,,,-99.99,,2013-02-17 14:01:00,
2013-02-17 08:11:00,34.0,23.0,30.21,South,180,1.0,-999.0,64,-99.99,,,-99.99,,2013-02-17 14:11:00,
2013-02-17 08:21:00,35.0,24.0,30.22,South,173,1.0,-999.0,64,-99.99,,,-99.99,,2013-02-17 14:21:00,
2013-02-17 08:32:00,35.0,24.0,30.22,SSW,194,1.0,-999.0,64,-99.99,,,-99.99,,2013-02-17 14:32:00,
2013-02-17 08:42:00,35.0,24.0,30.22,SSW,194,1.0,-999.0,64,-99.99,,,-99.99,,2013-02-17 14:42:00,
2013-02-17 08:53:00,35.0,24.0,30.22,SSE,158,1.0,-999.0,65,-99.99,,,-99.99,,2013-02-17 14:53:00,
2013-02-17 09:01:00,36.0,25.0,30.22,SSE,155,1.0,-999.0,65,-99.99,,,-99.99,,2013-02-17 15:01:00,
2013-02-17 09:11:00,36.0,25.0,30.22,SSE,155,1.0,-999.0,65,-99.99,,,-99.99,,2013-02-17 15:11:00,
2013-02-17 09:21:00,37.0,24.0,30.22,South,171,3.0,-999.0,60,-99.99,,,-99.99,,2013-02-17 15:21:00,
2013-02-17 09:31:00,37.0,24.0,30.22,South,173,4.0,-999.0,58,-99.99,,,-99.99,,2013-02-17 15:31:00,
2013-02-17 09:41:00,37.0,24.0,30.22,South,173,4.0,-999.0,58,-99.99,,,-99.99,,2013-02-17 15:41:00,
2013-02-17 09:52:00,38.0,24.0,30.22,South,190,4.0,-999.0,57,-99.99,,,-99.99,,2013-02-17 15:52:00,
2013-02-17 10:01:00,38.0,26.0,30.22,South,175,5.0,-999.0,61,-99.99,,,-99.99,,2013-02-17 16:01:00,
2013-02-17 10:11:00,38.0,26.0,30.22,South,175,5.0,-999.0,61,-99.99,,,-99.99,,2013-02-17 16:11:00,
2013-02-17 10:21:00,39.0,25.0,30.22,SE,140,4.0,-999.0,56,-99.99,,,-99.99,,2013-02-17 16:21:00,
2013-02-17 10:32:00,39.0,24.0,30.22,South,180,4.0,-999.0,55,-99.99,,,-99.99,,2013-02-17 16:32:00,
2013-02-17 10:41:00,39.0,24.0,30.22,South,180,4.0,-999.0,55,-99.99,,,-99.99,,2013-02-17 16:41:00,
2013-02-17 10:52:00,40.0,24.0,30.22,South,173,6.0,-999.0,52,-99.99,,,-99.99,,2013-02-17 16:52:00,
2013-02-17 11:02:00,41.0,25.0,30.21,South,176,6.0,-999.0,52,-99.99,,,-99.99,,2013-02-17 17:02:00,
2013-02-17 11:11:00,41.0,25.0,30.21,South,176,6.0,-999.0,52,-99.99,,,-99.99,,2013-02-17 17:11:00,
2013-02-17 11:21:00,43.0,24.0,30.20,SW,214,6.0,-999.0,47,-99.99,,,-99.99,,2013-02-17 17:21:00,
2013-02-17 11:32:00,44.0,24.0,30.20,SW,217,4.0,-999.0,45,-99.99,,,-99.99,,2013-02-17 17:32:00,
2013-02-17 11:41:00,44.0,24.0,30.20,SW,217,4.0,-999.0,45,-99.99,,,-99.99,,2013-02-17 17:41:00,
2013-02-17 11:52:00,44.0,24.0,30.19,SSW,198,5.0,-999.0,45,-99.99,,,-99.99,,2013-02-17 17:52:00,
2013-02-17 12:01:00,45.0,25.0,30.18,SSE,153,5.0,-999.0,45,-99.99,,,-99.99,,2013-02-17 18:01:00,
2013-02-17 12:11:00,45.0,25.0,30.18,SSE,153,5.0,-999.0,45,-99.99,,,-99.99,,2013-02-17 18:11:00,
2013-02-17 12:22:00,46.0,24.0,30.18,South,178,5.0,-999.0,42,-99.99,,,-99.99,,2013-02-17 18:22:00,
2013-02-17 12:33:00,47.0,25.0,30.17,South,188,4.0,-999.0,42,-99.99,,,-99.99,,2013-02-17 18:33:00,
2013-02-17 12:42:00,47.0,25.0,30.17,South,188,4.0,-999.0,42,-99.99,,,-99.99,,2013-02-17 18:42:00,
2013-02-17 12:52:00,48.0,25.0,30.16,SSW,195,5.0,-999.0,41,-99.99,,,-99.99,,2013-02-17 18:52:00,
2013-02-17 13:01:00,48.0,25.0,30.15,South,175,5.0,-999.0,40,-99.99,,,-99.99,,2013-02-17 19:01:00,
2013-02-17 13:11:00,48.0,25.0,30.15,South,175,5.0,-999.0,40,-99.99,,,-99.99,,2013-02-17 19:11:00,
2013-02-17 13:21:00,49.0,25.0,30.14,SSW,213,6.0,-999.0,39,-99.99,,,-99.99,,2013-02-17 19:21:00,
2013-02-17 13:32:00,49.0,25.0,30.13,SSW,213,6.0,-999.0,39,-99.99,,,-99.99,,2013-02-17 19:32:00,
2013-02-17 13:42:00,49.0,25.0,30.13,SSW,213,6.0,-999.0,39,-99.99,,,-99.99,,2013-02-17 19:42:00,
2013-02-17 13:52:00,50.0,25.0,30.12,North,360,6.0,-999.0,38,-99.99,,,-99.99,,2013-02-17 19:52:00,
2013-02-17 14:01:00,50.0,26.0,30.11,South,190,6.0,-999.0,39,-99.99,,,-99.99,,2013-02-17 20:01:00,
2013-02-17 14:11:00,50.0,26.0,30.11,South,190,6.0,-999.0,39,-99.99,,,-99.99,,2013-02-17 20:11:00,
2013-02-17 14:21:00,51.0,27.0,30.11,SSW,196,7.0,-999.0,39,-99.99,,,-99.99,,2013-02-17 20:21:00,
2013-02-17 14:32:00,50.0,26.0,30.10,South,190,6.0,-999.0,39,-99.99,,,-99.99,,2013-02-17 20:32:00,
2013-02-17 14:42:00,50.0,26.0,30.10,South,190,6.0,-999.0,39,-99.99,,,-99.99,,2013-02-17 20:42:00,
2013-02-17 14:52:00,51.0,28.0,30.10,SSE,165,5.0,-999.0,40,-99.99,,,-99.99,,2013-02-17 20:52:00,
2013-02-17 15:01:00,51.0,26.0,30.09,SSW,207,5.0,-999.0,38,-99.99,,,-99.99,,2013-02-17 21:01:00,
2013-02-17 15:11:00,51.0,26.0,30.09,SSW,207,5.0,-999.0,38,-99.99,,,-99.99,,2013-02-17 21:11:00,
2013-02-17 15:21:00,52.0,27.0,30.09,SSW,203,5.0,-999.0,38,-99.99,,,-99.99,,2013-02-17 21:21:00,
2013-02-17 15:31:00,52.0,27.0,30.08,SSW,210,5.0,-999.0,37,-99.99,,,-99.99,,2013-02-17 21:31:00,
2013-02-17 15:41:00,52.0,27.0,30.08,SSW,210,5.0,-999.0,37,-99.99,,,-99.99,,2013-02-17 21:41:00,
2013-02-17 15:53:00,52.0,27.0,30.07,SSW,198,4.0,-999.0,37,-99.99,,,-99.99,,2013-02-17 21:53:00,
2013-02-17 16:01:00,53.0,27.0,30.07,SSW,202,4.0,-999.0,36,-99.99,,,-99.99,,2013-02-17 22:01:00,
2013-02-17 16:12:00,53.0,27.0,30.07,SSW,202,4.0,-999.0,36,-99.99,,,-99.99,,2013-02-17 22:12:00,
2013-02-17 16:21:00,53.0,26.0,30.07,SSE,164,4.0,-999.0,35,-99.99,,,-99.99,,2013-02-17 22:21:00,
2013-02-17 16:32:00,52.0,25.0,30.06,SSW,200,6.0,-999.0,35,-99.99,,,-99.99,,2013-02-17 22:32:00,
2013-02-17 16:42:00,52.0,25.0,30.06,SSW,200,6.0,-999.0,35,-99.99,,,-99.99,,2013-02-17 22:42:00,
2013-02-17 16:52:00,52.0,25.0,30.06,SSE,159,5.0,-999.0,35,-99.99,,,-99.99,,2013-02-17 22:52:00,
2013-02-17 17:02:00,52.0,25.0,30.05,SSE,148,5.0,-999.0,35,-99.99,,,-99.99,,2013-02-17 23:02:00,
2013-02-17 17:11:00,52.0,25.0,30.05,SSE,148,5.0,-999.0,35,-99.99,,,-99.99,,2013-02-17 23:11:00,
2013-02-17 17:21:00,52.0,27.0,30.05,SSE,150,4.0,-999.0,38,-99.99,,,-99.99,,2013-02-17 23:21:00,
2013-02-17 17:32:00,51.0,27.0,30.05,SE,138,5.0,-999.0,39,-99.99,,,-99.99,,2013-02-17 23:32:00,
2013-02-17 17:42:00,51.0,27.0,30.05,SE,138,5.0,-999.0,39,-99.99,,,-99.99,,2013-02-17 23:42:00,
2013-02-17 17:52:00,50.0,28.0,30.05,South,173,2.0,-999.0,42,-99.99,,,-99.99,,2013-02-17 23:52:00,
2013-02-17 18:01:00,49.0,27.0,30.05,SSE,150,1.0,-999.0,43,-99.99,,,-99.99,,2013-02-18 00:01:00,
2013-02-17 18:11:00,49.0,27.0,30.05,SSE,150,1.0,-999.0,43,-99.99,,,-99.99,,2013-02-18 00:11:00,
2013-02-17 18:22:00,49.0,28.0,30.05,SSE,147,2.0,-999.0,44,-99.99,,,-99.99,,2013-02-18 00:22:00,
2013-02-17 18:31:00,48.0,27.0,30.05,SSE,152,3.0,-999.0,44,-99.99,,,-99.99,,2013-02-18 00:31:00,
2013-02-17 18:41:00,48.0,27.0,30.05,SSE,152,3.0,-999.0,44,-99.99,,,-99.99,,2013-02-18 00:41:00,
2013-02-17 18:52:00,47.0,27.0,30.05,SE,132,3.0,-999.0,45,-99.99,,,-99.99,,2013-02-18 00:52:00,
2013-02-17 19:01:00,46.0,27.0,30.06,SSE,156,2.0,-999.0,48,-99.99,,,-99.99,,2013-02-18 01:01:00,
2013-02-17 19:11:00,46.0,27.0,30.06,SSE,156,2.0,-999.0,48,-99.99,,,-99.99,,2013-02-18 01:11:00,
2013-02-17 19:21:00,45.0,27.0,30.05,SE,144,0.0,-999.0,49,-99.99,,,-99.99,,2013-02-18 01:21:00,
2013-02-17 19:31:00,45.0,27.0,30.06,SE,140,2.0,-999.0,50,-99.99,,,-99.99,,2013-02-18 01:31:00,
2013-02-17 19:41:00,45.0,27.0,30.06,SE,140,2.0,-999.0,50,-99.99,,,-99.99,,2013-02-18 01:41:00,
2013-02-17 19:52:00,44.0,27.0,30.06,SE,135,1.0,-999.0,51,-99.99,,,-99.99,,2013-02-18 01:52:00,
2013-02-17 20:01:00,44.0,28.0,30.06,SE,138,2.0,-999.0,52,-99.99,,,-99.99,,2013-02-18 02:01:00,
2013-02-17 20:11:00,44.0,28.0,30.06,SE,138,2.0,-999.0,52,-99.99,,,-99.99,,2013-02-18 02:11:00,
2013-02-17 20:21:00,44.0,28.0,30.06,SE,138,1.0,-999.0,52,-99.99,,,-99.99,,2013-02-18 02:21:00,
2013-02-17 20:32:00,43.0,27.0,30.06,SSE,150,2.0,-999.0,53,-99.99,,,-99.99,,2013-02-18 02:32:00,
2013-02-17 20:41:00,43.0,27.0,30.06,SSE,150,2.0,-999.0,53,-99.99,,,-99.99,,2013-02-18 02:41:00,
2013-02-17 20:52:00,44.0,28.0,30.05,SE,134,3.0,-999.0,52,-99.99,,,-99.99,,2013-02-18 02:52:00,
2013-02-17 21:01:00,43.0,27.0,30.05,SE,145,3.0,-999.0,53,-99.99,,,-99.99,,2013-02-18 03:01:00,
2013-02-17 21:11:00,43.0,27.0,30.05,SE,145,3.0,-999.0,53,-99.99,,,-99.99,,2013-02-18 03:11:00,
2013-02-17 21:21:00,43.0,28.0,30.05,SE,142,3.0,-999.0,55,-99.99,,,-99.99,,2013-02-18 03:21:00,
2013-02-17 21:31:00,42.0,27.0,30.05,SE,130,3.0,-999.0,56,-99.99,,,-99.99,,2013-02-18 03:31:00,
2013-02-17 21:42:00,42.0,27.0,30.05,SE,130,3.0,-999.0,56,-99.99,,,-99.99,,2013-02-18 03:42:00,
2013-02-17 21:52:00,42.0,28.0,30.05,SE,140,3.0,-999.0,57,-99.99,,,-99.99,,2013-02-18 03:52:00,
2013-02-17 22:01:00,42.0,28.0,30.04,SSE,155,4.0,-999.0,57,-99.99,,,-99.99,,2013-02-18 04:01:00,
2013-02-17 22:11:00,42.0,28.0,30.04,SSE,155,4.0,-999.0,57,-99.99,,,-99.99,,2013-02-18 04:11:00,
2013-02-17 22:21:00,42.0,27.0,30.04,SE,138,5.0,-999.0,56,-99.99,,,-99.99,,2013-02-18 04:21:00,
2013-02-17 22:32:00,42.0,27.0,30.03,SE,134,6.0,-999.0,56,-99.99,,,-99.99,,2013-02-18 04:32:00,
2013-02-17 22:41:00,42.0,27.0,30.03,SE,134,6.0,-999.0,56,-99.99,,,-99.99,,2013-02-18 04:41:00,
2013-02-17 22:52:00,42.0,27.0,30.03,SE,146,5.0,-999.0,56,-99.99,,,-99.99,,2013-02-18 04:52:00,
2013-02-17 23:01:00,42.0,27.0,30.03,SE,142,5.0,-999.0,56,-99.99,,,-99.99,,2013-02-18 05:01:00,
2013-02-17 23:11:00,42.0,27.0,30.03,SE,142,5.0,-999.0,56,-99.99,,,-99.99,,2013-02-18 05:11:00,
2013-02-17 23:21:00,43.0,28.0,30.02,South,170,5.0,-999.0,55,-99.99,,,-99.99,,2013-02-18 05:21:00,
2013-02-17 23:31:00,44.0,28.0,30.02,SSE,148,6.0,-999.0,54,-99.99,,,-99.99,,2013-02-18 05:31:00,
2013-02-17 23:41:00,44.0,28.0,30.02,SSE,148,6.0,-999.0,54,-99.99,,,-99.99,,2013-02-18 05:41:00,
2013-02-17 23:52:00,45.0,29.0,30.01,SSE,149,6.0,-999.0,53,-99.99,,,-99.99,,2013-02-18 05:52:00,